| time (UTC) | temp C | wind direction | speed KPH | gust KPH | rain 1hr cm | rain 24hr cm | rain mn cm | humidity % | barometer mb |
| 20260504002551 | 16 | 263 | 12.9 | 25.7 | 0.00 | 0.79 | 0.30 | 76 | 1013.9 |
| 20260504002039 | 16 | 263 | 11.3 | 25.7 | 0.00 | 0.79 | 0.30 | 78 | 1013.9 |
| 20260504001523 | 16 | 263 | 9.7 | 25.7 | 0.00 | 0.79 | 0.30 | 80 | 1013.9 |
| 20260504001021 | 16 | 263 | 8.0 | 25.7 | 0.00 | 0.79 | 0.30 | 82 | 1013.8 |
| 20260504000508 | 15 | 263 | 8.0 | 17.7 | 0.00 | 0.79 | 0.30 | 84 | 1013.8 |
| 20260504000016 | 15 | 263 | 8.0 | 24.1 | 0.00 | 0.79 | 0.30 | 84 | 1013.8 |
| 20260503234856 | 15 | 263 | 6.4 | 24.1 | 0.00 | 0.81 | 0.30 | 85 | 1013.8 |
| 20260503233728 | 15 | 263 | 4.8 | 12.9 | 0.00 | 0.81 | 0.30 | 85 | 1013.6 |
| 20260503233229 | 15 | 263 | 4.8 | 22.5 | 0.00 | 0.81 | 0.30 | 85 | 1013.6 |
| 20260503232723 | 15 | 263 | 8.0 | 22.5 | 0.00 | 0.81 | 0.30 | 84 | 1013.3 |
| 20260503232227 | 15 | 263 | 9.7 | 22.5 | 0.00 | 0.81 | 0.30 | 83 | 1013.3 |
| 20260503231713 | 15 | 263 | 6.4 | 22.5 | 0.00 | 0.81 | 0.30 | 83 | 1013.3 |
| 20260503231212 | 16 | 263 | 4.8 | 24.1 | 0.00 | 0.79 | 0.30 | 83 | 1013.1 |
| 20260503230711 | 16 | 263 | 6.4 | 24.1 | 0.00 | 0.79 | 0.28 | 82 | 1013.1 |
| 20260503230211 | 16 | 263 | 8.0 | 24.1 | 0.00 | 0.79 | 0.28 | 82 | 1013.1 |
| 20260503225657 | 16 | 263 | 9.7 | 24.1 | 0.00 | 0.79 | 0.28 | 82 | 1012.8 |
| 20260503225147 | 15 | 263 | 8.0 | 22.5 | 0.00 | 0.79 | 0.28 | 82 | 1012.8 |
| 20260503224635 | 15 | 263 | 8.0 | 22.5 | 0.00 | 0.79 | 0.28 | 83 | 1012.8 |
| 20260503224127 | 15 | 263 | 6.4 | 20.9 | 0.00 | 0.79 | 0.28 | 82 | 1012.7 |
| 20260503223628 | 15 | 263 | 6.4 | 20.9 | 0.00 | 0.79 | 0.28 | 82 | 1012.7 |
| 20260503223111 | 15 | 263 | 8.0 | 20.9 | 0.00 | 0.79 | 0.28 | 82 | 1012.7 |
| 20260503222607 | 15 | 263 | 6.4 | 19.3 | 0.00 | 0.79 | 0.28 | 82 | 1012.4 |
| 20260503222058 | 15 | 263 | 6.4 | 19.3 | 0.00 | 0.79 | 0.28 | 82 | 1012.4 |
| 20260503221539 | 15 | 263 | 6.4 | 19.3 | 0.00 | 0.79 | 0.28 | 82 | 1012.4 |
| 20260503213908 | 15 | 263 | 8.0 | 22.5 | 0.00 | 0.79 | 0.28 | 83 | 1011.8 |
| 20260503213415 | 15 | 263 | 8.0 | 20.9 | 0.00 | 0.79 | 0.28 | 83 | 1011.8 |
| 20260503212906 | 15 | 263 | 8.0 | 20.9 | 0.00 | 0.79 | 0.28 | 83 | 1011.7 |
| 20260503212347 | 15 | 263 | 8.0 | 27.4 | 0.00 | 0.79 | 0.28 | 83 | 1011.7 |
| 20260503211838 | 15 | 263 | 8.0 | 27.4 | 0.00 | 0.79 | 0.28 | 83 | 1011.7 |
| 20260503211336 | 15 | 263 | 9.7 | 27.4 | 0.00 | 0.79 | 0.28 | 82 | 1011.7 |
| 20260503210817 | 15 | 263 | 11.3 | 27.4 | 0.00 | 0.79 | 0.28 | 82 | 1011.7 |
| 20260503210315 | 15 | 263 | 9.7 | 20.9 | 0.00 | 0.84 | 0.28 | 82 | 1011.7 |
| 20260503205759 | 15 | 263 | 8.0 | 19.3 | 0.00 | 0.84 | 0.28 | 82 | 1011.3 |
| 20260503205243 | 15 | 263 | 8.0 | 24.1 | 0.00 | 0.84 | 0.28 | 82 | 1011.3 |
| 20260503204727 | 15 | 263 | 9.7 | 24.1 | 0.00 | 0.84 | 0.28 | 81 | 1011.3 |
| 20260503204227 | 15 | 263 | 9.7 | 24.1 | 0.00 | 0.84 | 0.28 | 81 | 1011.2 |
| 20260503203722 | 15 | 263 | 9.7 | 24.1 | 0.00 | 0.84 | 0.28 | 81 | 1011.2 |
| 20260503203202 | 15 | 263 | 9.7 | 20.9 | 0.00 | 0.84 | 0.28 | 82 | 1011.2 |
| 20260503202658 | 15 | 263 | 9.7 | 20.9 | 0.00 | 0.84 | 0.28 | 82 | 1011.1 |
| 20260503202147 | 15 | 263 | 8.0 | 29.0 | 0.00 | 0.84 | 0.28 | 82 | 1011.1 |
| 20260503201018 | 15 | 263 | 9.7 | 29.0 | 0.00 | 0.84 | 0.28 | 83 | 1010.9 |
| 20260503200510 | 15 | 263 | 8.0 | 27.4 | 0.00 | 0.84 | 0.28 | 83 | 1010.9 |
| 20260503200020 | 15 | 263 | 9.7 | 24.1 | 0.00 | 0.84 | 0.28 | 83 | 1010.9 |
| 20260503195521 | 15 | 263 | 9.7 | 24.1 | 0.00 | 0.84 | 0.28 | 83 | 1010.9 |
| 20260503195024 | 15 | 263 | 8.0 | 22.5 | 0.00 | 0.84 | 0.28 | 83 | 1010.9 |
| 20260503194505 | 15 | 263 | 8.0 | 22.5 | 0.00 | 0.84 | 0.28 | 83 | 1010.9 |
| 20260503194001 | 15 | 263 | 8.0 | 32.2 | 0.00 | 0.84 | 0.28 | 83 | 1010.8 |
| 20260503193446 | 15 | 263 | 8.0 | 32.2 | 0.00 | 0.84 | 0.28 | 83 | 1010.8 |
| 20260503192927 | 15 | 263 | 11.3 | 32.2 | 0.00 | 0.84 | 0.28 | 82 | 1010.8 |
| 20260503192412 | 15 | 263 | 11.3 | 24.1 | 0.00 | 0.84 | 0.28 | 82 | 1010.7 |
| 20260503191903 | 15 | 263 | 8.0 | 24.1 | 0.00 | 0.84 | 0.28 | 82 | 1010.7 |
| 20260503191344 | 15 | 263 | 6.4 | 19.3 | 0.00 | 0.84 | 0.28 | 82 | 1010.9 |
| 20260503190211 | 15 | 263 | 9.7 | 30.6 | 0.00 | 0.84 | 0.28 | 82 | 1010.9 |
| 20260503185713 | 15 | 263 | 9.7 | 30.6 | 0.00 | 0.84 | 0.28 | 82 | 1010.7 |
| 20260503185157 | 15 | 263 | 9.7 | 30.6 | 0.00 | 0.84 | 0.28 | 82 | 1010.7 |
| 20260503184655 | 15 | 263 | 8.0 | 30.6 | 0.00 | 0.84 | 0.28 | 82 | 1010.7 |
| 20260503184156 | 15 | 263 | 9.7 | 25.7 | 0.00 | 0.84 | 0.28 | 82 | 1010.7 |
| 20260503183646 | 15 | 263 | 9.7 | 25.7 | 0.00 | 0.84 | 0.28 | 82 | 1010.7 |
| 20260503182526 | 15 | 263 | 6.4 | 25.7 | 0.00 | 0.84 | 0.28 | 83 | 1010.7 |
| 20260503182028 | 15 | 263 | 8.0 | 25.7 | 0.00 | 0.84 | 0.28 | 83 | 1010.7 |
| 20260503181518 | 15 | 263 | 8.0 | 20.9 | 0.00 | 0.84 | 0.28 | 83 | 1010.7 |
| 20260503181008 | 15 | 263 | 8.0 | 19.3 | 0.00 | 0.84 | 0.28 | 83 | 1010.7 |
| 20260503180505 | 15 | 263 | 9.7 | 22.5 | 0.00 | 0.84 | 0.28 | 84 | 1010.7 |
| 20260503175959 | 15 | 263 | 9.7 | 22.5 | 0.00 | 0.84 | 0.28 | 84 | 1010.7 |
| 20260503175446 | 15 | 263 | 9.7 | 30.6 | 0.00 | 0.84 | 0.28 | 85 | 1010.9 |
| 20260503174952 | 15 | 263 | 9.7 | 30.6 | 0.00 | 0.84 | 0.28 | 85 | 1010.9 |
| 20260503174437 | 15 | 263 | 9.7 | 30.6 | 0.00 | 0.84 | 0.28 | 85 | 1010.9 |
| 20260503170744 | 14 | 263 | 6.4 | 19.3 | 0.00 | 0.84 | 0.28 | 87 | 1011.2 |
| 20260503170238 | 14 | 263 | 4.8 | 30.6 | 0.00 | 0.86 | 0.28 | 87 | 1011.2 |
| 20260503150601 | 13 | 263 | 4.8 | 32.2 | 0.15 | 0.99 | 0.25 | 86 | 1011.6 |
| 20260503131126 | 13 | 263 | 6.4 | 27.4 | 0.28 | 0.74 | 0.74 | 78 | 1012.2 |
| 20260503130612 | 14 | 263 | 8.0 | 27.4 | 0.61 | 0.71 | 0.71 | 77 | 1012.2 |
| 20260503110820 | 14 | 263 | 4.8 | 22.5 | 0.00 | 0.64 | 0.64 | 85 | 1011.7 |
| 20260503110307 | 14 | 263 | 6.4 | 22.5 | 0.08 | 0.64 | 0.64 | 85 | 1011.7 |
| 20260503090126 | 14 | 263 | 0.0 | 6.4 | 0.00 | 0.56 | 0.56 | 85 | 1011.2 |
| 20260503081252 | 16 | 263 | 6.4 | 24.1 | 0.00 | 0.46 | 0.43 | 72 | 1010.2 |
| 20260503080741 | 16 | 263 | 4.8 | 24.1 | 0.00 | 0.46 | 0.43 | 71 | 1010.2 |
| 20260503080227 | 16 | 263 | 4.8 | 24.1 | 0.00 | 0.46 | 0.43 | 70 | 1010.2 |
| 20260503072640 | 16 | 263 | 3.2 | 24.1 | 0.00 | 0.46 | 0.43 | 76 | 1010.5 |
| 20260503072148 | 16 | 263 | 4.8 | 24.1 | 0.00 | 0.46 | 0.43 | 76 | 1010.5 |
| 20260503071645 | 16 | 263 | 4.8 | 24.1 | 0.00 | 0.46 | 0.43 | 76 | 1010.5 |
| 20260503070525 | 16 | 263 | 6.4 | 22.5 | 0.00 | 0.46 | 0.43 | 77 | 1010.2 |
| 20260503060330 | 15 | 263 | 4.8 | 22.5 | 0.00 | 0.51 | 0.43 | 81 | 1010.6 |
| 20260503054804 | 15 | 263 | 11.3 | 40.2 | 0.08 | 0.51 | 0.41 | 78 | 1010.6 |
| 20260503053105 | 18 | 263 | 9.7 | 35.4 | 0.00 | 0.46 | 0.28 | 61 | 1010.1 |
| 20260503052600 | 18 | 263 | 8.0 | 35.4 | 0.00 | 0.46 | 0.28 | 60 | 1010.1 |
| 20260503052059 | 18 | 263 | 8.0 | 32.2 | 0.00 | 0.46 | 0.28 | 59 | 1010.1 |
| 20260503051602 | 18 | 263 | 9.7 | 32.2 | 0.00 | 0.46 | 0.28 | 59 | 1010.1 |
| 20260503051107 | 18 | 263 | 11.3 | 32.2 | 0.00 | 0.46 | 0.28 | 57 | 1009.8 |
| 20260503050549 | 19 | 263 | 8.0 | 32.2 | 0.00 | 0.46 | 0.28 | 56 | 1009.8 |
| 20260503045437 | 18 | 263 | 4.8 | 16.1 | 0.00 | 0.51 | 0.28 | 59 | 1010.0 |
| 20260503044932 | 18 | 263 | 4.8 | 27.4 | 0.00 | 0.56 | 0.28 | 59 | 1010.0 |
| 20260503044425 | 18 | 263 | 6.4 | 27.4 | 0.00 | 0.56 | 0.28 | 58 | 1010.0 |
| 20260503043918 | 19 | 263 | 6.4 | 27.4 | 0.00 | 0.64 | 0.28 | 57 | 1009.9 |
| 20260503042733 | 18 | 263 | 6.4 | 30.6 | 0.00 | 0.66 | 0.28 | 58 | 1010.1 |
| 20260503042213 | 18 | 263 | 8.0 | 30.6 | 0.00 | 0.66 | 0.28 | 61 | 1010.1 |
| 20260503041701 | 18 | 263 | 9.7 | 30.6 | 0.00 | 0.71 | 0.28 | 61 | 1010.1 |
| 20260503041146 | 18 | 263 | 8.0 | 30.6 | 0.00 | 0.71 | 0.28 | 60 | 1010.1 |
| 20260503040634 | 18 | 263 | 6.4 | 29.0 | 0.00 | 0.71 | 0.28 | 60 | 1010.1 |
| 20260503040114 | 18 | 263 | 6.4 | 27.4 | 0.00 | 0.71 | 0.28 | 60 | 1010.1 |
| 20260503035622 | 18 | 263 | 9.7 | 32.2 | 0.00 | 0.71 | 0.28 | 61 | 1010.2 |
| 20260503035130 | 18 | 263 | 11.3 | 32.2 | 0.00 | 0.74 | 0.28 | 60 | 1010.2 |
| 20260503033955 | 18 | 263 | 8.0 | 33.8 | 0.00 | 0.74 | 0.28 | 63 | 1010.3 |
| 20260503033500 | 18 | 263 | 6.4 | 33.8 | 0.00 | 0.74 | 0.28 | 64 | 1010.3 |
| 20260503033003 | 17 | 263 | 6.4 | 33.8 | 0.00 | 0.74 | 0.28 | 65 | 1010.3 |
| 20260503032456 | 17 | 263 | 8.0 | 27.4 | 0.00 | 0.74 | 0.28 | 69 | 1010.5 |
| 20260503031939 | 17 | 263 | 8.0 | 33.8 | 0.00 | 0.76 | 0.28 | 70 | 1010.5 |
| 20260503031439 | 16 | 263 | 8.0 | 33.8 | 0.00 | 0.76 | 0.28 | 73 | 1010.5 |
| 20260503030920 | 16 | 263 | 9.7 | 33.8 | 0.00 | 0.81 | 0.28 | 73 | 1010.9 |
| 20260503025747 | 16 | 263 | 6.4 | 25.7 | 0.00 | 0.84 | 0.28 | 72 | 1010.9 |
| 20260503025229 | 16 | 263 | 8.0 | 33.8 | 0.00 | 0.84 | 0.28 | 70 | 1010.9 |
| 20260503024724 | 17 | 263 | 9.7 | 33.8 | 0.00 | 0.81 | 0.28 | 64 | 1010.9 |
| 20260503024204 | 17 | 263 | 9.7 | 33.8 | 0.00 | 0.81 | 0.25 | 60 | 1010.6 |
| 20260503023650 | 18 | 263 | 6.4 | 33.8 | 0.00 | 0.81 | 0.25 | 60 | 1010.6 |
| 20260503023135 | 18 | 263 | 4.8 | 22.5 | 0.00 | 0.81 | 0.25 | 60 | 1010.6 |
| 20260503022640 | 17 | 263 | 6.4 | 22.5 | 0.00 | 0.81 | 0.25 | 61 | 1011.0 |
| 20260503022128 | 17 | 263 | 8.0 | 25.7 | 0.00 | 0.81 | 0.25 | 60 | 1011.0 |
| 20260503021625 | 17 | 263 | 6.4 | 25.7 | 0.00 | 0.81 | 0.25 | 62 | 1011.0 |
| 20260503015904 | 17 | 263 | 9.7 | 33.8 | 0.00 | 0.81 | 0.25 | 65 | 1010.8 |
| 20260503015403 | 17 | 263 | 4.8 | 33.8 | 0.00 | 0.81 | 0.25 | 66 | 1010.8 |
| 20260503014910 | 17 | 263 | 4.8 | 27.4 | 0.00 | 0.81 | 0.25 | 68 | 1010.8 |
| 20260503014358 | 16 | 263 | 4.8 | 27.4 | 0.00 | 0.81 | 0.25 | 69 | 1011.0 |
| 20260503013905 | 16 | 263 | 4.8 | 27.4 | 0.00 | 0.81 | 0.25 | 70 | 1011.0 |
| 20260503013359 | 16 | 263 | 4.8 | 24.1 | 0.00 | 0.81 | 0.25 | 70 | 1011.0 |
| 20260503010928 | 16 | 263 | 6.4 | 20.9 | 0.00 | 0.81 | 0.25 | 71 | 1011.1 |
| 20260503010412 | 15 | 263 | 4.8 | 20.9 | 0.00 | 0.81 | 0.25 | 72 | 1011.1 |
| 20260503005909 | 15 | 263 | 3.2 | 17.7 | 0.00 | 0.81 | 0.25 | 73 | 1011.1 |
| 20260503005405 | 15 | 263 | 4.8 | 20.9 | 0.00 | 0.81 | 0.25 | 73 | 1011.0 |
| 20260503004846 | 16 | 263 | 6.4 | 20.9 | 0.00 | 0.81 | 0.25 | 71 | 1011.0 |
| 20260503004354 | 16 | 263 | 4.8 | 29.0 | 0.00 | 0.81 | 0.25 | 69 | 1011.2 |
| 20260503003846 | 16 | 263 | 6.4 | 29.0 | 0.00 | 0.81 | 0.25 | 68 | 1011.2 |
| 20260503003338 | 16 | 263 | 6.4 | 29.0 | 0.00 | 0.81 | 0.25 | 69 | 1011.2 |
| 20260503002836 | 16 | 263 | 6.4 | 29.0 | 0.00 | 0.81 | 0.25 | 68 | 1011.2 |